Regional Weather Roundup
Issued by NWS Sterling, VA

Home | Current Version | Previous Version | Graphics & Text | Print | Product List | Glossary On
Versions: 1 2 3 4 5 6 7 8 9 10 11 12 13 14 15 16 17 18 19 20 21 22 23 24 25 26 27 28 29 30 31 32 33 34 35 36 37 38 39 40 41 42 43 44 45 46 47 48 49 50
000
ASUS41 KLWX 132211
RWRLWX

REGIONAL WEATHER ROUNDUP
NATIONAL WEATHER SERVICE BALTIMORE MD/WASHINGTON DC
500 PM EST WED DEC 13 2017

Note: "FAIR" indicates few or no clouds below 12,000 feet
with no significant weather and/or obstructions to visibility.
 TC=TEMPERATURE CELSIUS

 * =Non NWS site. Station does not report precipitation (e.g. rain,
    snow, etc.), thunder, or fog.

DCZ001-MDZ009-015-VAZ040>042-051-053>054-132300-
WASHINGTON METRO

CITY           SKY/WX    TMP DP  RH WIND       PRES   REMARKS
WASHINGTON NAT MOCLDY    34   7  32 S10       29.77F WCI  26
DULLES         CLOUDY    32   8  36 S9        29.74F WCI  24
ANDREWS AFB    CLEAR     31   7  36 SW8       29.74F WCI  23
FT BELVOIR     MOCLDY    33   6  31 S3        29.76F
QUANTICO       MOCLDY    35   9  33 SW7       29.79F
COLLEGE PARK*  PTCLDY    32   5  32 SW6       29.75F
LEESBURG*      CLOUDY    34  12  40 CALM      29.74F
MANASSAS*      CLOUDY    32  11  41 S5        29.76F
GAITHERSBURG*  PTCLDY    28  10  46 W5        29.73F

$$

MDZ006>007-011-014-132300-
BALTIMORE METRO

CITY           SKY/WX    TMP DP  RH WIND       PRES   REMARKS
BWI AIRPORT    MOCLDY    30   8  39 W5        29.75S
MD SCIENCE CTR   N/A     32   7  35 MISG      29.75S
MARTIN STATE   PTCLDY    32   9  37 SW12      29.77S WCI  23
ANNAPOLIS      CLEAR     32   8  36 CALM      29.76S
FORT MEADE*    CLEAR     30  10  43 W3        29.78S

$$

MDZ012-015-019>023-132300-
MARYLAND EASTERN SHORE

CITY           SKY/WX    TMP DP  RH WIND       PRES   REMARKS
OCEAN CITY     PTCLDY    30  12  47 W7        29.78F
SALISBURY      CLOUDY    29  11  47 W8        29.79R WCI  21
BAY BRIDGE AP* CLEAR     32   9  37 MISG      29.78R
CAMBRIDGE*     CLEAR     32   7  34 SW6       29.79R
EASTON*        PTCLDY    32   7  34 W7        29.81R

$$

MDZ017>025-132300-
SOUTHERN MARYLAND

CITY           SKY/WX    TMP DP  RH WIND       PRES   REMARKS
PATUXENT RIVER MOCLDY    32   9  38 W8        29.80R WCI  25
ST INIGOES     MOCLDY    34  11  38 SW12      29.79S WCI  25
LEONARDTOWN*   PTCLDY    32   9  37 SW8       29.81R WCI  25

$$

MDZ003>005-132300-
NORTH CENTRAL MARYLAND

CITY           SKY/WX    TMP DP  RH WIND       PRES   REMARKS
FREDERICK*     CLEAR     30   3  31 W5        29.76F
HAGERSTOWN APT CLOUDY    29   8  41 W3        29.69F
WESTMINSTER*   CLEAR     28   9  43 SW6       29.71R

$$

MDZ501>502-132300-
WESTERN MARYLAND

CITY           SKY/WX    TMP DP  RH WIND       PRES   REMARKS
OAKLAND*       CLOUDY    16  12  86 S10G17    29.48F VSB 1/2 WCI   3
CUMBERLAND*    CLOUDY    30  12  47 SW8       29.71F WCI  23

$$

VAZ025>031-132300-
SHENANDOAH VALLEY

CITY           SKY/WX    TMP DP  RH WIND       PRES   REMARKS
WINCHESTER*    CLOUDY    32  10  40 CALM      29.69F
FRONT ROYAL*   CLOUDY    32   9  37 CALM      29.69F
LURAY*         CLOUDY    34  10  37 S8        29.69S WCI  27
NEW MARKET*    CLOUDY    34   8  33 S10G16    29.67F WCI  26
STAUNTON*      CLOUDY    33  10  39 S9G17     29.70F WCI  25
WAYNESBORO*    CLOUDY    32   9  38 SW9G16    29.69F WCI  24

$$

WVZ021-048>050-054>055-132300-
EASTERN WEST VIRGINIA PANHANDLE

CITY           SKY/WX    TMP DP  RH WIND       PRES   REMARKS
MARTINSBURG    CLOUDY    30   8  39 CALM      29.70F
PETERSBURG*    CLOUDY    32  17  54 CALM      29.65F

$$

VAZ036>039-050-132300-
CENTRAL FOOTHILLS

CITY           SKY/WX    TMP DP  RH WIND       PRES   REMARKS
CHARLOTTESVILL CLOUDY    36   7  29 S10       29.73F WCI  28
CULPEPER*      FAIR      33   5  29 S3        29.75F
ORANGE*        CLOUDY    34   9  35 CALM      29.75F
GORDONSVILLE*  CLOUDY    34   8  33 SW8       29.74S WCI  27
WARRENTON*     PTCLDY    33   2  27 S3        29.74F

$$

VAZ055>057-132300-
NORTH AND CENTRAL PIEDMONT

CITY           SKY/WX    TMP DP  RH WIND       PRES   REMARKS
FREDERICKSBRG* MOCLDY    34  11  38 S7        29.78F
STAFFORD*      CLOUDY    32   6  32 SW5       29.81F

$$

NCZ024-NYZ072-PAZ021-071-VAZ022-071-132300-
OTHER REGIONAL OBSERVATIONS

CITY           SKY/WX    TMP DP  RH WIND       PRES   REMARKS
NEW YORK CITY  CLEAR     29   8  41 W6G18     29.64R
PHILADELPHIA   PTCLDY    29   3  33 W17       29.73R WCI  17
PITTSBURGH     CLOUDY    23  18  81 S7        29.58F
ROANOKE        MOCLDY    39  14  36 S6        29.72F
RICHMOND       CLOUDY    37  11  34 S7        29.81S
RALEIGH        PTCLDY    38  14  37 SW9       29.84F

$$

ANZ530>537-132300-
MARINE OBSERVATIONS

STATION/POSITION TIME  TEMP    WIND        PRES
                       AIR SEA DIR/SP/G
                 (UTC) (F)     (DEG/KT/KT) (MB)
THOMAS PT LIGHT  2100   33 45  260/ 13/ 17   N/A
BALT KEY BRIDGE  2148   32     270/ 12/ 15 1007.6R
COVE POINT       2148   33     270/  7/ 11 1009.5R
LEWISETTA        2148   34 41  270/  7/ 10 1009.1S
SOLOMONS ISLAND  2148   34 47  240/  9/ 13 1008.6R
PINEY POINT      2148          280/ 12/ 13   N/A

$$




USA.gov is the U.S. government's official web portal to all federal, state and local government web resources and services.